Location: Vihti�l�
(61.3833°N, 23.0667°E)
Time: 03:57:18
(UTC+00:00)

Cosmos 1862 - Pass Details

Date: 29 November 2020
Orbit: 537 x 556 km, 82.5° (Epoch: 19 January)

Event Time Altitude Azimuth Distance (km) Brightness Sun altitude
Rises 05:25:09 0° 219° (SW) 2,739 6.7 -11.0°
Reaches altitude 10° 05:27:27 10° 228° (SW) 1,848 5.8 -10.7°
Maximum altitude 05:31:14 36° 296° (WNW) 894 3.9 -10.3°
Drops below altitude 10° 05:35:03 10° 4° (N) 1,857 5.8 -9.9°
Sets 05:37:22 0° 13° (NNE) 2,755 6.7 -9.7°
